GPS BIIR-18M

Last updated on Sat Jun 27 2026 00:02:55 GMT+0000 (Coordinated Universal Time)

1 32384U 07062A 26177.02337119 -.00000053 00000+0 00000+0 0 9991 2 32384 55.0244 273.7972 0035842 166.2118 194.0389 2.00560714135699
UTC large
Height (km)
Speed (km/s)
/
Latitude / Longitude
Inclination (degrees)
Orbital Period (minutes)
Azimuth
Elevation
Range (km)
Doppler Factor

Next 0 passes for location: London (51.5072 / 0.1276)

No passes found over London.
GPS BIIR-18M